Home   Weather   Warburg   Past weeks

Flag for Germany Past Weather in Warburg, North Rhine-Westphalia, Germany — Yesterday and Last 2 Weeks

Now
75 °F

Scattered clouds.


Feels Like: 78 °F
Forecast: 60 / 77 °F
Wind: 2 mph from North

Location: Kassel / Calden

Current Time: Jul 21, 2017 at 2:52:51 pm

Latest Report: Jul 21, 2017 at 2:20 pm


Visibility: N/A

Pressure: 29.95 "Hg

Humidity: 54%

Dew Point: 57 °F

Location of WarburgLocation

Past Weather in Warburg — Graph

°F

Warburg Temperature Yesterday

Maximum temperature yesterday: 75 °F (at 3:20 pm)
Minimum temperature yesterday: 63 °F (at 12:20 am)
Average temperature yesterday: 69 °F

High & Low Weather Summary for the Past Weeks

 TemperatureHumidityPressure
High90 °F (Jul 19, 4:20 pm)100% (Jul 6, 11:20 pm)30.24 "Hg (Jul 6, 11:20 pm)
Low48 °F (Jul 13, 2:20 am)38% (Jul 19, 4:20 pm)29.71 "Hg (Jul 12, 2:20 pm)
Average66 °F76%30.00 "Hg
* Reported Jul 6 1:20 pm — Jul 21 1:20 pm, Warburg. Weather by CustomWeather, © 2017

Note: Actual official high and low records may vary slightly from our data, if they occured in-between our weather recording intervals... More about our weather records

Advertising

Warburg Weather History for the Previous 24 Hours

Scroll right to see more
 ConditionsComfort  
Time TempWeatherWind HumidityBarometerVisibility
1:20 pm
Fri, Jul 21
72 °FScattered clouds.5 mph53%29.98 "HgN/A
12:50 pm70 °FScattered clouds.2 mph60%29.98 "HgN/A
12:20 pm70 °FBroken clouds.3 mph60%29.98 "HgN/A
11:50 am68 °FScattered clouds.3 mph64%29.98 "HgN/A
11:20 am68 °FBroken clouds.5 mph69%30.01 "HgN/A
10:50 am66 °FScattered clouds.3 mph68%30.01 "HgN/A
10:20 am66 °FBroken clouds.1 mph68%30.01 "HgN/A
9:50 am66 °FBroken clouds.3 mph68%30.01 "HgN/A
9:20 am64 °FBroken clouds.5 mph73%30.01 "HgN/A
8:50 am63 °FBroken clouds.6 mph83%30.01 "HgN/A
8:20 am64 °FBroken clouds.6 mph83%30.01 "HgN/A
7:50 am63 °FPartly sunny.5 mph83%29.98 "HgN/A
7:20 am63 °FPassing clouds.6 mph83%29.98 "HgN/A
4:50 am61 °FClear.6 mph94%29.98 "Hg10 mi
4:20 am61 °FClear.5 mph94%29.95 "Hg10 mi
1:20 am64 °FPassing clouds.3 mph88%29.95 "HgN/A
12:50 am64 °FPassing clouds.6 mph83%29.92 "HgN/A
12:20 am66 °FPassing clouds.12 mph78%29.92 "HgN/A
11:50 pm
Thu, Jul 20
66 °FClear.9 mph73%29.89 "Hg10 mi
11:20 pm66 °FClear.8 mph73%29.89 "Hg10 mi
10:50 pm68 °FClear.6 mph69%29.89 "Hg10 mi
10:20 pm68 °FClear.6 mph69%29.89 "Hg10 mi
9:20 pm70 °FSunny.5 mph78%29.86 "Hg10 mi
8:50 pm72 °FScattered clouds.6 mph73%29.86 "HgN/A
8:20 pm73 °FScattered clouds.8 mph65%29.83 "HgN/A
7:50 pm73 °FScattered clouds.12 mph61%29.83 "HgN/A
7:20 pm75 °FScattered clouds.9 mph65%29.83 "HgN/A
6:50 pm75 °FScattered clouds.10 mph61%29.83 "HgN/A
6:20 pm75 °FScattered clouds.10 mph65%29.83 "HgN/A
5:50 pm75 °FScattered showers. Scattered clouds.10 mph69%29.83 "HgN/A
5:20 pm73 °FScattered showers. Scattered clouds.8 mph74%29.83 "HgN/A
4:50 pm72 °FScattered clouds.10 mph83%29.83 "HgN/A
4:20 pm72 °FScattered clouds.10 mph88%29.83 "HgN/A
3:50 pm72 °FRain. Partly sunny.10 mph78%29.83 "HgN/A
3:20 pm75 °FPartly sunny.10 mph69%29.83 "HgN/A
2:50 pm73 °FPartly sunny.12 mph74%29.83 "HgN/A
2:20 pm73 °FPartly sunny.10 mph78%29.83 "HgN/A
Weather by CustomWeather, © 2017

See weather overviewHow to use our weather pages